Location: Val-d'Or
(48.1170°N, 77.7670°W)
Time: 07:44:39
(UTC-04:00)

ISS - Pass Details

Date: 24 May 2018
Orbit: 402 x 407 km, 51.6° (Epoch: 26 May)

Event Time Altitude Azimuth Distance (km) Brightness Sun altitude
Rises 01:31:21 0° 290° (WNW) 2,320 0.2 -20.9°
Reaches altitude 10° 01:33:27 10° 294° (WNW) 1,459 -0.8 -20.9°
Maximum altitude 01:36:41 62° 16° (NNE) 460 -3.4 -20.8°
Enters shadow 01:37:41 39° 80° (E) 625 -2.8 -20.8°
